Time,TemperatureF,DewpointF,PressureIn,WindDirection,WindDirectionDegrees,WindSpeedMPH,WindSpeedGustMPH,Humidity,HourlyPrecipIn,Conditions,Clouds,dailyrainin,SoftwareType,DateUTC
2013-02-19 00:00:00,16.3,2.0,30.09,South,180,0.0,0.0,48,0.00,,,0.00,open2300 v1.10,2013-02-19 07:00:00,
2013-02-19 00:02:00,16.3,2.0,30.09,South,180,0.0,0.0,48,0.00,,,0.00,open2300 v1.10,2013-02-19 07:02:00,
2013-02-19 00:05:00,16.3,2.0,30.09,SSE,157,4.0,4.0,48,0.00,,,0.00,open2300 v1.10,2013-02-19 07:05:00,
2013-02-19 00:10:00,16.3,2.0,30.09,South,180,0.0,4.0,48,0.00,,,0.00,open2300 v1.10,2013-02-19 07:10:00,
2013-02-19 00:15:00,16.5,2.6,30.08,SSE,157,0.0,0.0,49,0.00,,,0.00,open2300 v1.10,2013-02-19 07:15:00,
2013-02-19 00:20:00,16.7,2.8,30.09,SSE,157,0.0,0.0,49,0.00,,,0.00,open2300 v1.10,2013-02-19 07:20:00,
2013-02-19 00:25:00,16.8,3.0,30.08,South,180,0.0,0.0,49,0.00,,,0.00,open2300 v1.10,2013-02-19 07:25:00,
2013-02-19 00:30:00,17.0,3.1,30.08,South,180,0.0,0.0,49,0.00,,,0.00,open2300 v1.10,2013-02-19 07:30:00,
2013-02-19 00:35:00,17.0,3.1,30.08,SSE,157,0.0,2.0,49,0.00,,,0.00,open2300 v1.10,2013-02-19 07:35:00,
2013-02-19 00:40:00,17.0,3.1,30.08,South,180,0.0,0.0,49,0.00,,,0.00,open2300 v1.10,2013-02-19 07:40:00,
2013-02-19 00:45:00,17.0,3.1,30.08,SSE,157,0.0,9.0,49,0.00,,,0.00,open2300 v1.10,2013-02-19 07:45:00,
2013-02-19 00:55:00,17.0,3.1,30.08,SSE,157,1.6,2.0,49,0.00,,,0.00,open2300 v1.10,2013-02-19 07:55:00,
2013-02-19 01:00:00,17.2,3.3,30.08,South,180,0.0,2.0,49,0.00,,,0.00,open2300 v1.10,2013-02-19 08:00:00,
2013-02-19 01:05:00,17.4,3.4,30.08,South,180,2.9,3.0,49,0.00,,,0.00,open2300 v1.10,2013-02-19 08:05:00,
2013-02-19 01:10:00,17.4,3.4,30.08,South,180,0.0,5.0,49,0.00,,,0.00,open2300 v1.10,2013-02-19 08:10:00,
2013-02-19 01:15:00,17.4,3.4,30.08,SSW,202,0.0,6.0,49,0.00,,,0.00,open2300 v1.10,2013-02-19 08:15:00,
2013-02-19 01:20:00,17.4,3.4,30.08,South,180,1.3,1.3,49,0.00,,,0.00,open2300 v1.10,2013-02-19 08:20:00,
2013-02-19 01:25:00,17.4,3.4,30.08,SSE,157,0.0,3.0,49,0.00,,,0.00,open2300 v1.10,2013-02-19 08:25:00,
2013-02-19 01:30:00,17.2,3.3,30.08,SSE,157,0.0,0.0,49,0.00,,,0.00,open2300 v1.10,2013-02-19 08:30:00,
2013-02-19 01:35:00,17.0,3.1,30.08,South,180,0.0,0.0,49,0.00,,,0.00,open2300 v1.10,2013-02-19 08:35:00,
2013-02-19 01:40:00,17.0,3.1,30.08,South,180,0.0,0.0,49,0.00,,,0.00,open2300 v1.10,2013-02-19 08:40:00,
2013-02-19 01:45:00,16.8,3.0,30.07,South,180,2.5,2.5,49,0.00,,,0.00,open2300 v1.10,2013-02-19 08:45:00,
2013-02-19 01:50:00,16.8,3.0,30.08,South,180,3.8,4.0,49,0.00,,,0.00,open2300 v1.10,2013-02-19 08:50:00,
2013-02-19 01:55:00,16.7,2.8,30.08,SSE,157,0.0,4.0,49,0.00,,,0.00,open2300 v1.10,2013-02-19 08:55:00,
2013-02-19 02:00:00,16.5,2.6,30.07,SSE,157,0.0,0.0,49,0.00,,,0.00,open2300 v1.10,2013-02-19 09:00:00,
2013-02-19 02:05:00,16.5,2.6,30.08,South,180,0.0,0.0,49,0.00,,,0.00,open2300 v1.10,2013-02-19 09:05:00,
2013-02-19 02:10:00,16.3,2.5,30.07,South,180,0.0,0.0,49,0.00,,,0.00,open2300 v1.10,2013-02-19 09:10:00,
2013-02-19 02:15:00,16.1,2.3,30.07,South,180,0.0,0.0,49,0.00,,,0.00,open2300 v1.10,2013-02-19 09:15:00,
2013-02-19 02:20:00,16.1,2.3,30.07,South,180,0.0,0.0,49,0.00,,,0.00,open2300 v1.10,2013-02-19 09:20:00,
2013-02-19 02:25:00,16.1,2.3,30.07,SSE,157,0.0,0.0,49,0.00,,,0.00,open2300 v1.10,2013-02-19 09:25:00,
2013-02-19 02:30:00,15.9,2.6,30.06,South,180,0.0,1.0,50,0.00,,,0.00,open2300 v1.10,2013-02-19 09:30:00,
2013-02-19 02:35:00,15.8,2.4,30.06,SSE,157,0.0,0.0,50,0.00,,,0.00,open2300 v1.10,2013-02-19 09:35:00,
2013-02-19 02:40:00,15.6,2.3,30.06,South,180,1.3,1.3,50,0.00,,,0.00,open2300 v1.10,2013-02-19 09:40:00,
2013-02-19 02:45:00,15.6,3.1,30.06,South,180,0.7,2.0,52,0.00,,,0.00,open2300 v1.10,2013-02-19 09:45:00,
2013-02-19 02:50:00,15.6,3.1,30.05,South,180,0.0,1.0,52,0.00,,,0.00,open2300 v1.10,2013-02-19 09:50:00,
2013-02-19 02:55:00,15.6,3.5,30.05,SSE,157,0.0,0.0,53,0.00,,,0.00,open2300 v1.10,2013-02-19 09:55:00,
2013-02-19 03:00:00,15.6,3.5,30.05,SE,135,0.0,0.0,53,0.00,,,0.00,open2300 v1.10,2013-02-19 10:00:00,
2013-02-19 03:05:00,15.6,3.9,30.05,South,180,0.0,0.0,54,0.00,,,0.00,open2300 v1.10,2013-02-19 10:05:00,
2013-02-19 03:10:00,15.6,3.9,30.05,South,180,0.0,0.0,54,0.00,,,0.00,open2300 v1.10,2013-02-19 10:10:00,
2013-02-19 03:15:00,15.6,4.3,30.05,SSE,157,0.0,0.0,55,0.00,,,0.00,open2300 v1.10,2013-02-19 10:15:00,
2013-02-19 03:20:00,15.6,4.3,30.05,SE,135,0.0,0.0,55,0.00,,,0.00,open2300 v1.10,2013-02-19 10:20:00,
2013-02-19 03:25:00,15.6,4.3,30.05,SE,135,0.0,0.0,55,0.00,,,0.00,open2300 v1.10,2013-02-19 10:25:00,
2013-02-19 03:30:00,15.6,4.7,30.05,South,180,0.0,0.0,56,0.00,,,0.00,open2300 v1.10,2013-02-19 10:30:00,
2013-02-19 03:35:00,15.6,4.7,30.05,SSE,157,0.0,0.0,56,0.00,,,0.00,open2300 v1.10,2013-02-19 10:35:00,
2013-02-19 03:40:00,15.6,5.1,30.05,SSE,157,0.0,0.0,57,0.00,,,0.00,open2300 v1.10,2013-02-19 10:40:00,
2013-02-19 03:45:00,15.6,5.1,30.05,South,180,0.0,4.0,57,0.00,,,0.00,open2300 v1.10,2013-02-19 10:45:00,
2013-02-19 03:55:00,15.2,5.1,30.05,South,180,0.0,6.0,58,0.00,,,0.00,open2300 v1.10,2013-02-19 10:55:00,
2013-02-19 04:00:00,15.2,5.5,30.05,South,180,0.0,6.0,59,0.00,,,0.00,open2300 v1.10,2013-02-19 11:00:00,
2013-02-19 04:05:00,15.2,5.5,30.04,South,180,0.0,2.0,59,0.00,,,0.00,open2300 v1.10,2013-02-19 11:05:00,
2013-02-19 04:10:00,15.2,5.9,30.04,South,180,0.0,0.0,60,0.00,,,0.00,open2300 v1.10,2013-02-19 11:10:00,
2013-02-19 04:15:00,15.0,5.7,30.04,ESE,112,0.0,0.0,60,0.00,,,0.00,open2300 v1.10,2013-02-19 11:15:00,
2013-02-19 04:20:00,15.0,5.7,30.04,South,180,0.0,0.0,60,0.00,,,0.00,open2300 v1.10,2013-02-19 11:20:00,
2013-02-19 04:25:00,15.0,6.1,30.04,South,180,0.0,5.0,61,0.00,,,0.00,open2300 v1.10,2013-02-19 11:25:00,
2013-02-19 04:30:00,15.0,6.1,30.04,SSE,157,0.0,0.0,61,0.00,,,0.00,open2300 v1.10,2013-02-19 11:30:00,
2013-02-19 04:35:00,15.0,6.1,30.04,South,180,0.0,0.0,61,0.00,,,0.00,open2300 v1.10,2013-02-19 11:35:00,
2013-02-19 04:40:00,15.0,6.1,30.04,SSE,157,0.0,0.0,61,0.00,,,0.00,open2300 v1.10,2013-02-19 11:40:00,
2013-02-19 04:45:00,15.0,6.4,30.04,South,180,0.0,0.0,62,0.00,,,0.00,open2300 v1.10,2013-02-19 11:45:00,
2013-02-19 04:50:00,14.9,6.2,30.04,South,180,3.6,4.0,62,0.00,,,0.00,open2300 v1.10,2013-02-19 11:50:00,
2013-02-19 04:55:00,14.7,6.0,30.03,South,180,0.0,4.0,62,0.00,,,0.00,open2300 v1.10,2013-02-19 11:55:00,
2013-02-19 05:00:00,14.7,6.4,30.04,South,180,0.0,0.0,63,0.00,,,0.00,open2300 v1.10,2013-02-19 12:00:00,
2013-02-19 05:05:00,14.7,6.4,30.04,South,180,0.0,0.0,63,0.00,,,0.00,open2300 v1.10,2013-02-19 12:05:00,
2013-02-19 05:10:00,14.7,6.7,30.04,South,180,0.0,0.0,64,0.00,,,0.00,open2300 v1.10,2013-02-19 12:10:00,
2013-02-19 05:15:00,14.7,6.7,30.04,South,180,0.0,4.0,64,0.00,,,0.00,open2300 v1.10,2013-02-19 12:15:00,
2013-02-19 05:20:00,14.7,7.1,30.04,SSE,157,0.0,3.0,65,0.00,,,0.00,open2300 v1.10,2013-02-19 12:20:00,
2013-02-19 05:25:00,14.7,7.1,30.03,South,180,0.0,0.0,65,0.00,,,0.00,open2300 v1.10,2013-02-19 12:25:00,
2013-02-19 05:30:00,14.9,7.6,30.04,SE,135,0.0,0.0,66,0.00,,,0.00,open2300 v1.10,2013-02-19 12:30:00,
2013-02-19 05:35:00,14.9,7.6,30.04,SSE,157,0.0,0.0,66,0.00,,,0.00,open2300 v1.10,2013-02-19 12:35:00,
2013-02-19 05:40:00,14.9,7.6,30.04,SSE,157,2.5,2.5,66,0.00,,,0.00,open2300 v1.10,2013-02-19 12:40:00,
2013-02-19 05:45:00,14.9,7.6,30.04,SSW,202,0.0,2.0,66,0.00,,,0.00,open2300 v1.10,2013-02-19 12:45:00,
2013-02-19 05:55:00,15.0,8.1,30.04,South,180,0.0,0.0,67,0.00,,,0.00,open2300 v1.10,2013-02-19 12:55:00,
2013-02-19 06:00:00,15.0,8.1,30.05,SSE,157,0.0,0.0,67,0.00,,,0.00,open2300 v1.10,2013-02-19 13:00:00,
2013-02-19 06:05:00,15.0,8.1,30.04,SSE,157,0.0,0.0,67,0.00,,,0.00,open2300 v1.10,2013-02-19 13:05:00,
2013-02-19 06:10:00,15.0,8.1,30.05,SSE,157,0.0,0.0,67,0.00,,,0.00,open2300 v1.10,2013-02-19 13:10:00,
2013-02-19 06:15:00,15.0,8.1,30.04,SSE,157,0.0,4.0,67,0.00,,,0.00,open2300 v1.10,2013-02-19 13:15:00,
2013-02-19 06:20:00,15.0,8.1,30.04,SSW,202,0.0,0.0,67,0.00,,,0.00,open2300 v1.10,2013-02-19 13:20:00,
2013-02-19 06:25:00,15.0,8.5,30.05,SE,135,0.0,0.0,68,0.00,,,0.00,open2300 v1.10,2013-02-19 13:25:00,
2013-02-19 06:30:00,15.0,8.5,30.05,SSW,202,0.0,0.0,68,0.00,,,0.00,open2300 v1.10,2013-02-19 13:30:00,
2013-02-19 06:35:00,15.0,8.5,30.05,South,180,0.0,0.0,68,0.00,,,0.00,open2300 v1.10,2013-02-19 13:35:00,
2013-02-19 06:40:00,14.9,8.3,30.05,SSE,157,0.0,0.0,68,0.00,,,0.00,open2300 v1.10,2013-02-19 13:40:00,
2013-02-19 06:45:00,15.0,8.5,30.04,SE,135,0.0,2.0,68,0.00,,,0.00,open2300 v1.10,2013-02-19 13:45:00,
2013-02-19 06:50:00,14.7,8.4,30.05,SSE,157,0.0,0.0,69,0.00,,,0.00,open2300 v1.10,2013-02-19 13:50:00,
2013-02-19 06:55:00,14.7,8.4,30.05,SE,135,0.0,0.0,69,0.00,,,0.00,open2300 v1.10,2013-02-19 13:55:00,
2013-02-19 07:00:00,14.7,8.1,30.05,South,180,0.0,0.0,68,0.00,,,0.00,open2300 v1.10,2013-02-19 14:00:00,
2013-02-19 07:05:00,14.9,8.3,30.05,SSE,157,0.0,0.0,68,0.00,,,0.00,open2300 v1.10,2013-02-19 14:05:00,
2013-02-19 07:10:00,14.9,8.3,30.05,SSE,157,0.0,0.0,68,0.00,,,0.00,open2300 v1.10,2013-02-19 14:10:00,
2013-02-19 07:15:00,15.0,8.5,30.04,SSE,157,0.0,0.0,68,0.00,,,0.00,open2300 v1.10,2013-02-19 14:15:00,
2013-02-19 07:20:00,15.0,8.5,30.05,SSE,157,0.0,0.0,68,0.00,,,0.00,open2300 v1.10,2013-02-19 14:20:00,
2013-02-19 07:25:00,15.0,8.8,30.04,ESE,112,0.0,0.0,69,0.00,,,0.00,open2300 v1.10,2013-02-19 14:25:00,
2013-02-19 07:30:00,15.0,8.8,30.05,SSE,157,0.0,0.0,69,0.00,,,0.00,open2300 v1.10,2013-02-19 14:30:00,
2013-02-19 07:35:00,15.0,9.1,30.05,SSE,157,0.0,0.0,70,0.00,,,0.00,open2300 v1.10,2013-02-19 14:35:00,
2013-02-19 07:40:00,15.2,9.3,30.04,SE,135,0.0,2.0,70,0.00,,,0.00,open2300 v1.10,2013-02-19 14:40:00,
2013-02-19 07:45:00,15.2,9.3,30.04,SSE,157,0.0,1.0,70,0.00,,,0.00,open2300 v1.10,2013-02-19 14:45:00,
2013-02-19 07:50:00,15.6,9.7,30.04,South,180,0.0,0.0,70,0.00,,,0.00,open2300 v1.10,2013-02-19 14:50:00,
2013-02-19 07:55:00,15.6,9.7,30.05,SSE,157,0.0,0.0,70,0.00,,,0.00,open2300 v1.10,2013-02-19 14:55:00,
2013-02-19 08:00:00,15.8,9.8,30.05,SSE,157,0.0,0.0,70,0.00,,,0.00,open2300 v1.10,2013-02-19 15:00:00,
2013-02-19 08:05:00,16.1,10.1,30.04,SSE,157,0.0,0.0,70,0.00,,,0.00,open2300 v1.10,2013-02-19 15:05:00,
2013-02-19 08:10:00,16.5,10.5,30.04,South,180,3.6,4.0,70,0.00,,,0.00,open2300 v1.10,2013-02-19 15:10:00,
2013-02-19 08:15:00,16.7,10.6,30.04,SSE,157,0.0,4.0,70,0.00,,,0.00,open2300 v1.10,2013-02-19 15:15:00,
2013-02-19 08:20:00,16.8,10.4,30.04,East,90,3.1,6.0,69,0.00,,,0.00,open2300 v1.10,2013-02-19 15:20:00,
2013-02-19 08:25:00,17.0,10.6,30.04,SSE,157,0.0,3.0,69,0.00,,,0.00,open2300 v1.10,2013-02-19 15:25:00,
2013-02-19 08:30:00,17.4,11.0,30.04,South,180,0.0,0.0,69,0.00,,,0.00,open2300 v1.10,2013-02-19 15:30:00,
2013-02-19 08:35:00,17.7,11.0,30.04,SE,135,2.2,2.2,68,0.00,,,0.00,open2300 v1.10,2013-02-19 15:35:00,
2013-02-19 08:40:00,18.1,11.3,30.04,SSE,157,0.0,2.0,68,0.00,,,0.00,open2300 v1.10,2013-02-19 15:40:00,
2013-02-19 08:45:00,18.6,11.9,30.04,SE,135,3.4,3.4,68,0.00,,,0.00,open2300 v1.10,2013-02-19 15:45:00,
2013-02-19 08:50:00,18.8,12.1,30.04,SSE,157,6.3,6.3,68,0.00,,,0.00,open2300 v1.10,2013-02-19 15:50:00,
2013-02-19 08:55:00,19.5,12.1,30.04,ESE,112,0.0,6.0,66,0.00,,,0.00,open2300 v1.10,2013-02-19 15:55:00,
2013-02-19 09:00:00,19.7,12.2,30.04,East,90,0.0,0.0,66,0.00,,,0.00,open2300 v1.10,2013-02-19 16:00:00,
2013-02-19 09:05:00,20.3,12.8,30.04,ESE,112,0.0,1.0,66,0.00,,,0.00,open2300 v1.10,2013-02-19 16:05:00,
2013-02-19 09:10:00,20.6,12.4,30.04,SE,135,2.7,3.0,64,0.00,,,0.00,open2300 v1.10,2013-02-19 16:10:00,
2013-02-19 09:15:00,21.0,12.7,30.04,SSW,202,0.0,3.0,64,0.00,,,0.00,open2300 v1.10,2013-02-19 16:15:00,
2013-02-19 09:20:00,21.3,13.1,30.04,SE,135,0.0,0.0,64,0.00,,,0.00,open2300 v1.10,2013-02-19 16:20:00,
2013-02-19 09:25:00,21.7,12.7,30.03,SE,135,0.0,0.0,62,0.00,,,0.00,open2300 v1.10,2013-02-19 16:25:00,
2013-02-19 09:30:00,21.9,12.9,30.03,SE,135,0.0,0.0,62,0.00,,,0.00,open2300 v1.10,2013-02-19 16:30:00,
2013-02-19 09:35:00,22.2,13.2,30.03,SSE,157,0.0,0.0,62,0.00,,,0.00,open2300 v1.10,2013-02-19 16:35:00,
2013-02-19 09:40:00,22.8,13.4,30.03,SSE,157,0.0,0.0,61,0.00,,,0.00,open2300 v1.10,2013-02-19 16:40:00,
2013-02-19 09:45:00,22.8,13.1,30.03,East,90,0.0,0.0,60,0.00,,,0.00,open2300 v1.10,2013-02-19 16:45:00,
2013-02-19 09:50:00,23.1,13.4,30.03,SE,135,0.0,0.0,60,0.00,,,0.00,open2300 v1.10,2013-02-19 16:50:00,
2013-02-19 09:59:00,23.1,13.4,30.03,SE,135,0.0,0.0,60,0.00,,,0.00,open2300 v1.10,2013-02-19 16:59:00,
2013-02-19 10:00:00,23.9,13.2,30.03,ESE,112,0.0,0.0,58,0.00,,,0.00,open2300 v1.10,2013-02-19 17:00:00,
2013-02-19 10:05:00,24.2,13.6,30.03,SE,135,0.0,0.0,58,0.00,,,0.00,open2300 v1.10,2013-02-19 17:05:00,
2013-02-19 10:10:00,24.6,13.9,30.03,SE,135,0.0,0.0,58,0.00,,,0.00,open2300 v1.10,2013-02-19 17:10:00,
2013-02-19 10:15:00,24.9,13.8,30.03,East,90,0.0,2.0,57,0.00,,,0.00,open2300 v1.10,2013-02-19 17:15:00,
2013-02-19 10:20:00,25.1,13.6,30.03,SE,135,0.0,0.0,56,0.00,,,0.00,open2300 v1.10,2013-02-19 17:20:00,
2013-02-19 10:25:00,25.7,13.7,30.03,SSE,157,0.0,1.0,55,0.00,,,0.00,open2300 v1.10,2013-02-19 17:25:00,
2013-02-19 10:30:00,26.0,14.1,30.03,SSE,157,0.0,0.0,55,0.00,,,0.00,open2300 v1.10,2013-02-19 17:30:00,
2013-02-19 10:35:00,26.4,14.4,30.03,SE,135,0.0,0.0,55,0.00,,,0.00,open2300 v1.10,2013-02-19 17:35:00,
2013-02-19 10:40:00,26.9,14.1,30.03,SE,135,0.0,0.0,53,0.00,,,0.00,open2300 v1.10,2013-02-19 17:40:00,
2013-02-19 10:45:00,27.1,14.2,30.03,SSE,157,0.0,0.0,53,0.00,,,0.00,open2300 v1.10,2013-02-19 17:45:00,
2013-02-19 10:50:00,27.3,14.4,30.03,ESE,112,1.1,1.1,53,0.00,,,0.00,open2300 v1.10,2013-02-19 17:50:00,
2013-02-19 10:55:00,27.8,14.9,30.02,SE,135,0.0,1.0,53,0.00,,,0.00,open2300 v1.10,2013-02-19 17:55:00,
2013-02-19 11:00:00,28.2,14.8,30.02,SE,135,0.0,0.0,52,0.00,,,0.00,open2300 v1.10,2013-02-19 18:00:00,
2013-02-19 11:05:00,28.4,15.0,30.02,SE,135,0.0,0.0,52,0.00,,,0.00,open2300 v1.10,2013-02-19 18:05:00,
2013-02-19 11:10:00,28.9,15.0,30.02,SSE,157,0.0,0.0,51,0.00,,,0.00,open2300 v1.10,2013-02-19 18:10:00,
2013-02-19 11:15:00,29.1,15.2,30.02,SE,135,0.0,0.0,51,0.00,,,0.00,open2300 v1.10,2013-02-19 18:15:00,
2013-02-19 11:20:00,29.6,15.7,30.02,ESE,112,0.0,0.0,51,0.00,,,0.00,open2300 v1.10,2013-02-19 18:20:00,
2013-02-19 11:25:00,30.2,15.8,30.02,SE,135,0.0,0.0,50,0.00,,,0.00,open2300 v1.10,2013-02-19 18:25:00,
2013-02-19 11:30:00,30.5,16.1,30.01,SSE,157,0.0,4.0,50,0.00,,,0.00,open2300 v1.10,2013-02-19 18:30:00,
2013-02-19 11:35:00,30.7,15.2,30.01,ESE,112,0.0,3.0,48,0.00,,,0.00,open2300 v1.10,2013-02-19 18:35:00,
2013-02-19 11:40:00,31.1,15.6,30.01,SE,135,0.0,0.0,48,0.00,,,0.00,open2300 v1.10,2013-02-19 18:40:00,
2013-02-19 11:45:00,31.2,15.2,30.01,SSE,157,0.0,0.0,47,0.00,,,0.00,open2300 v1.10,2013-02-19 18:45:00,
2013-02-19 11:55:00,32.0,15.4,30.01,SSE,157,1.3,1.3,46,0.00,,,0.00,open2300 v1.10,2013-02-19 18:55:00,
2013-02-19 12:00:00,32.0,15.4,30.01,SSE,157,1.1,1.1,46,0.00,,,0.00,open2300 v1.10,2013-02-19 19:00:00,
2013-02-19 12:05:00,32.1,15.0,30.00,SE,135,0.0,5.0,45,0.00,,,0.00,open2300 v1.10,2013-02-19 19:05:00,
2013-02-19 12:10:00,32.3,15.2,30.00,ESE,112,0.0,1.0,45,0.00,,,0.00,open2300 v1.10,2013-02-19 19:10:00,
2013-02-19 12:15:00,32.7,15.6,29.99,SE,135,1.6,2.0,45,0.00,,,0.00,open2300 v1.10,2013-02-19 19:15:00,
2013-02-19 12:20:00,32.7,15.6,29.99,SE,135,0.0,2.0,45,0.00,,,0.00,open2300 v1.10,2013-02-19 19:20:00,
2013-02-19 12:25:00,32.7,15.6,29.99,ESE,112,0.0,0.0,45,0.00,,,0.00,open2300 v1.10,2013-02-19 19:25:00,
2013-02-19 12:30:00,32.7,15.0,29.99,SSE,157,0.0,7.0,44,0.00,,,0.00,open2300 v1.10,2013-02-19 19:30:00,
2013-02-19 12:35:00,32.7,15.0,29.99,SSE,157,0.0,0.0,44,0.00,,,0.00,open2300 v1.10,2013-02-19 19:35:00,
2013-02-19 12:40:00,32.5,14.4,29.98,ESE,112,0.0,0.0,43,0.00,,,0.00,open2300 v1.10,2013-02-19 19:40:00,
2013-02-19 12:45:00,32.3,14.2,29.98,SSE,157,0.0,0.0,43,0.00,,,0.00,open2300 v1.10,2013-02-19 19:45:00,
2013-02-19 12:55:00,32.1,14.0,29.98,ESE,112,0.0,0.0,43,0.00,,,0.00,open2300 v1.10,2013-02-19 19:55:00,
2013-02-19 13:00:00,32.1,14.0,29.97,SE,135,2.2,4.0,43,0.00,,,0.00,open2300 v1.10,2013-02-19 20:00:00,
2013-02-19 13:05:00,32.0,13.9,29.97,South,180,0.0,2.0,43,0.00,,,0.00,open2300 v1.10,2013-02-19 20:05:00,
2013-02-19 13:10:00,32.1,14.0,29.97,SE,135,0.0,1.0,43,0.00,,,0.00,open2300 v1.10,2013-02-19 20:10:00,
2013-02-19 13:15:00,32.3,14.7,29.96,SE,135,0.0,0.0,44,0.00,,,0.00,open2300 v1.10,2013-02-19 20:15:00,
2013-02-19 13:20:00,32.7,15.0,29.96,SE,135,0.0,0.0,44,0.00,,,0.00,open2300 v1.10,2013-02-19 20:20:00,
2013-02-19 13:25:00,33.2,14.5,29.96,ESE,112,0.0,0.0,42,0.00,,,0.00,open2300 v1.10,2013-02-19 20:25:00,
2013-02-19 13:30:00,33.6,14.9,29.96,SE,135,0.0,0.0,42,0.00,,,0.00,open2300 v1.10,2013-02-19 20:30:00,
2013-02-19 13:35:00,33.6,14.3,29.95,SSE,157,3.8,4.0,41,0.00,,,0.00,open2300 v1.10,2013-02-19 20:35:00,
2013-02-19 13:40:00,33.6,14.9,29.95,SE,135,3.6,4.0,42,0.00,,,0.00,open2300 v1.10,2013-02-19 20:40:00,
2013-02-19 13:45:00,33.6,14.9,29.95,ENE,67,4.2,4.2,42,0.00,,,0.00,open2300 v1.10,2013-02-19 20:45:00,
2013-02-19 13:50:00,33.4,14.7,29.95,SSE,157,0.9,4.0,42,0.00,,,0.00,open2300 v1.10,2013-02-19 20:50:00,
2013-02-19 13:55:00,33.2,14.5,29.95,South,180,0.0,1.0,42,0.00,,,0.00,open2300 v1.10,2013-02-19 20:55:00,
2013-02-19 14:00:00,33.0,14.3,29.95,ESE,112,9.2,9.2,42,0.00,,,0.00,open2300 v1.10,2013-02-19 21:00:00,
2013-02-19 14:05:00,33.0,14.3,29.95,SSW,202,2.0,9.0,42,0.00,,,0.00,open2300 v1.10,2013-02-19 21:05:00,
2013-02-19 14:10:00,33.0,14.3,29.95,SSW,202,0.0,1.0,42,0.00,,,0.00,open2300 v1.10,2013-02-19 21:10:00,
2013-02-19 14:15:00,33.0,14.3,29.95,SE,135,2.5,2.5,42,0.00,,,0.00,open2300 v1.10,2013-02-19 21:15:00,
2013-02-19 14:20:00,33.0,14.3,29.94,South,180,1.1,2.0,42,0.00,,,0.00,open2300 v1.10,2013-02-19 21:20:00,
2013-02-19 14:25:00,32.7,14.0,29.94,South,180,0.0,0.0,42,0.00,,,0.00,open2300 v1.10,2013-02-19 21:25:00,
2013-02-19 14:30:00,32.7,14.5,29.94,SSE,157,0.0,3.0,43,0.00,,,0.00,open2300 v1.10,2013-02-19 21:30:00,
2013-02-19 14:35:00,33.0,14.9,29.94,South,180,0.0,0.0,43,0.00,,,0.00,open2300 v1.10,2013-02-19 21:35:00,
2013-02-19 14:40:00,33.0,14.9,29.94,South,180,0.0,0.0,43,0.00,,,0.00,open2300 v1.10,2013-02-19 21:40:00,
2013-02-19 14:45:00,33.0,14.9,29.94,South,180,0.0,0.0,43,0.00,,,0.00,open2300 v1.10,2013-02-19 21:45:00,
2013-02-19 14:50:00,33.0,14.9,29.94,SSW,202,0.7,2.0,43,0.00,,,0.00,open2300 v1.10,2013-02-19 21:50:00,
2013-02-19 14:55:00,32.7,14.5,29.94,South,180,6.3,6.3,43,0.00,,,0.00,open2300 v1.10,2013-02-19 21:55:00,
2013-02-19 15:00:00,32.5,14.9,29.94,SSE,157,0.4,6.0,44,0.00,,,0.00,open2300 v1.10,2013-02-19 22:00:00,
2013-02-19 15:05:00,32.3,14.7,29.94,SSE,157,0.0,4.0,44,0.00,,,0.00,open2300 v1.10,2013-02-19 22:05:00,
2013-02-19 15:10:00,32.3,14.7,29.94,SSE,157,0.0,4.0,44,0.00,,,0.00,open2300 v1.10,2013-02-19 22:10:00,
2013-02-19 15:15:00,32.1,14.5,29.94,South,180,0.0,0.0,44,0.00,,,0.00,open2300 v1.10,2013-02-19 22:15:00,
2013-02-19 15:20:00,32.1,14.5,29.94,SE,135,1.8,2.0,44,0.00,,,0.00,open2300 v1.10,2013-02-19 22:20:00,
2013-02-19 15:25:00,32.3,14.7,29.94,SE,135,0.0,2.0,44,0.00,,,0.00,open2300 v1.10,2013-02-19 22:25:00,
2013-02-19 15:30:00,32.1,14.5,29.94,SSE,157,6.7,7.0,44,0.00,,,0.00,open2300 v1.10,2013-02-19 22:30:00,
2013-02-19 15:35:00,32.0,14.4,29.93,South,180,6.7,7.0,44,0.00,,,0.00,open2300 v1.10,2013-02-19 22:35:00,
2013-02-19 15:40:00,31.8,14.2,29.94,SSE,157,2.5,7.0,44,0.00,,,0.00,open2300 v1.10,2013-02-19 22:40:00,
2013-02-19 15:45:00,31.6,14.5,29.93,South,180,2.9,3.0,45,0.00,,,0.00,open2300 v1.10,2013-02-19 22:45:00,
2013-02-19 15:55:00,31.4,13.9,29.94,SE,135,0.0,4.0,44,0.00,,,0.00,open2300 v1.10,2013-02-19 22:55:00,
2013-02-19 16:00:00,31.4,13.9,29.94,SE,135,0.0,0.0,44,0.00,,,0.00,open2300 v1.10,2013-02-19 23:00:00,
2013-02-19 16:05:00,31.4,13.9,29.94,SSE,157,0.7,1.0,44,0.00,,,0.00,open2300 v1.10,2013-02-19 23:05:00,
2013-02-19 16:10:00,31.2,13.7,29.94,South,180,0.0,1.0,44,0.00,,,0.00,open2300 v1.10,2013-02-19 23:10:00,
2013-02-19 16:15:00,31.2,13.2,29.94,SSE,157,0.0,0.0,43,0.00,,,0.00,open2300 v1.10,2013-02-19 23:15:00,
2013-02-19 16:20:00,31.1,13.1,29.94,SSE,157,0.0,0.0,43,0.00,,,0.00,open2300 v1.10,2013-02-19 23:20:00,
2013-02-19 16:25:00,30.9,12.9,29.94,SSE,157,0.0,0.0,43,0.00,,,0.00,open2300 v1.10,2013-02-19 23:25:00,
2013-02-19 16:30:00,30.7,12.7,29.94,South,180,0.0,0.0,43,0.00,,,0.00,open2300 v1.10,2013-02-19 23:30:00,
2013-02-19 16:35:00,30.5,12.6,29.94,South,180,0.0,0.0,43,0.00,,,0.00,open2300 v1.10,2013-02-19 23:35:00,
2013-02-19 16:40:00,30.3,12.4,29.94,SSE,157,0.0,1.0,43,0.00,,,0.00,open2300 v1.10,2013-02-19 23:40:00,
2013-02-19 16:45:00,30.2,12.2,29.94,South,180,0.0,0.0,43,0.00,,,0.00,open2300 v1.10,2013-02-19 23:45:00,
2013-02-19 16:50:00,30.0,11.6,29.93,SE,135,0.0,0.0,42,0.00,,,0.00,open2300 v1.10,2013-02-19 23:50:00,
2013-02-19 16:55:00,29.6,11.2,29.93,SE,135,0.0,0.0,42,0.00,,,0.00,open2300 v1.10,2013-02-19 23:55:00,
2013-02-19 17:00:00,29.4,11.1,29.93,South,180,0.0,0.0,42,0.00,,,0.00,open2300 v1.10,2013-02-20 00:00:00,
2013-02-19 17:05:00,29.3,10.9,29.93,SE,135,0.0,0.0,42,0.00,,,0.00,open2300 v1.10,2013-02-20 00:05:00,
2013-02-19 17:10:00,29.1,11.3,29.93,South,180,0.0,0.0,43,0.00,,,0.00,open2300 v1.10,2013-02-20 00:10:00,
2013-02-19 17:15:00,29.1,11.3,29.93,SSE,157,0.0,0.0,43,0.00,,,0.00,open2300 v1.10,2013-02-20 00:15:00,
2013-02-19 17:20:00,28.7,10.9,29.93,ESE,112,5.6,6.0,43,0.00,,,0.00,open2300 v1.10,2013-02-20 00:20:00,
2013-02-19 17:25:00,28.7,10.9,29.93,South,180,0.0,6.0,43,0.00,,,0.00,open2300 v1.10,2013-02-20 00:25:00,
2013-02-19 17:30:00,28.5,10.8,29.94,SE,135,0.0,0.0,43,0.00,,,0.00,open2300 v1.10,2013-02-20 00:30:00,
2013-02-19 17:35:00,28.5,10.8,29.93,SSE,157,0.0,0.0,43,0.00,,,0.00,open2300 v1.10,2013-02-20 00:35:00,
2013-02-19 17:40:00,28.2,10.4,29.93,SSE,157,0.0,0.0,43,0.00,,,0.00,open2300 v1.10,2013-02-20 00:40:00,
2013-02-19 17:45:00,27.8,10.1,29.93,SE,135,2.5,2.5,43,0.00,,,0.00,open2300 v1.10,2013-02-20 00:45:00,
2013-02-19 17:50:00,27.8,10.6,29.93,SE,135,0.0,2.0,44,0.00,,,0.00,open2300 v1.10,2013-02-20 00:50:00,
2013-02-19 17:55:00,27.6,10.5,29.93,SE,135,0.0,0.0,44,0.00,,,0.00,open2300 v1.10,2013-02-20 00:55:00,
2013-02-19 18:00:00,27.6,10.5,29.93,SE,135,0.0,0.0,44,0.00,,,0.00,open2300 v1.10,2013-02-20 01:00:00,
2013-02-19 18:05:00,27.5,10.3,29.93,SSE,157,0.0,0.0,44,0.00,,,0.00,open2300 v1.10,2013-02-20 01:05:00,
2013-02-19 18:10:00,27.5,10.3,29.93,SSE,157,0.0,0.0,44,0.00,,,0.00,open2300 v1.10,2013-02-20 01:10:00,
2013-02-19 18:15:00,27.5,10.8,29.93,SSE,157,0.0,0.0,45,0.00,,,0.00,open2300 v1.10,2013-02-20 01:15:00,
2013-02-19 18:20:00,27.3,10.6,29.93,SSE,157,0.0,0.0,45,0.00,,,0.00,open2300 v1.10,2013-02-20 01:20:00,
2013-02-19 18:25:00,27.3,10.6,29.93,SE,135,0.0,0.0,45,0.00,,,0.00,open2300 v1.10,2013-02-20 01:25:00,
2013-02-19 18:30:00,27.3,10.6,29.94,SSE,157,0.0,0.0,45,0.00,,,0.00,open2300 v1.10,2013-02-20 01:30:00,
2013-02-19 18:35:00,27.1,10.5,29.93,SSE,157,0.0,0.0,45,0.00,,,0.00,open2300 v1.10,2013-02-20 01:35:00,
2013-02-19 18:40:00,26.9,10.3,29.93,South,180,0.0,0.0,45,0.00,,,0.00,open2300 v1.10,2013-02-20 01:40:00,
2013-02-19 18:45:00,26.9,10.3,29.93,South,180,0.0,0.0,45,0.00,,,0.00,open2300 v1.10,2013-02-20 01:45:00,
2013-02-19 18:50:00,26.9,10.3,29.93,South,180,0.0,0.0,45,0.00,,,0.00,open2300 v1.10,2013-02-20 01:50:00,
2013-02-19 18:55:00,26.9,10.3,29.93,South,180,0.0,0.0,45,0.00,,,0.00,open2300 v1.10,2013-02-20 01:55:00,
2013-02-19 19:00:00,26.9,10.3,29.93,South,180,0.0,0.0,45,0.00,,,0.00,open2300 v1.10,2013-02-20 02:00:00,
2013-02-19 19:05:00,26.9,10.8,29.93,South,180,0.0,0.0,46,0.00,,,0.00,open2300 v1.10,2013-02-20 02:05:00,
2013-02-19 19:10:00,26.9,10.8,29.93,South,180,0.0,0.0,46,0.00,,,0.00,open2300 v1.10,2013-02-20 02:10:00,
2013-02-19 19:15:00,26.9,10.8,29.93,South,180,0.0,0.0,46,0.00,,,0.00,open2300 v1.10,2013-02-20 02:15:00,
2013-02-19 19:20:00,26.9,10.3,29.93,SSE,157,0.0,0.0,45,0.00,,,0.00,open2300 v1.10,2013-02-20 02:20:00,
2013-02-19 19:25:00,26.9,10.3,29.93,SSE,157,1.3,1.3,45,0.00,,,0.00,open2300 v1.10,2013-02-20 02:25:00,
2013-02-19 19:30:00,26.7,9.7,29.93,SSE,157,0.0,1.0,44,0.00,,,0.00,open2300 v1.10,2013-02-20 02:30:00,
2013-02-19 19:35:00,26.7,9.7,29.93,East,90,0.0,0.0,44,0.00,,,0.00,open2300 v1.10,2013-02-20 02:35:00,
2013-02-19 19:40:00,26.7,9.7,29.93,ESE,112,0.0,0.0,44,0.00,,,0.00,open2300 v1.10,2013-02-20 02:40:00,
2013-02-19 19:45:00,26.7,9.7,29.93,SE,135,0.0,0.0,44,0.00,,,0.00,open2300 v1.10,2013-02-20 02:45:00,
2013-02-19 19:50:00,26.7,9.7,29.93,SE,135,0.0,0.0,44,0.00,,,0.00,open2300 v1.10,2013-02-20 02:50:00,
2013-02-19 19:55:00,26.7,9.7,29.92,SE,135,0.0,0.0,44,0.00,,,0.00,open2300 v1.10,2013-02-20 02:55:00,
2013-02-19 20:00:00,26.7,9.7,29.92,SE,135,0.0,0.0,44,0.00,,,0.00,open2300 v1.10,2013-02-20 03:00:00,
2013-02-19 20:05:00,26.7,9.7,29.92,SE,135,0.0,0.0,44,0.00,,,0.00,open2300 v1.10,2013-02-20 03:05:00,
2013-02-19 20:10:00,26.7,9.7,29.92,SE,135,0.0,0.0,44,0.00,,,0.00,open2300 v1.10,2013-02-20 03:10:00,
2013-02-19 20:15:00,26.7,9.7,29.92,SSE,157,0.0,0.0,44,0.00,,,0.00,open2300 v1.10,2013-02-20 03:15:00,
2013-02-19 20:20:00,26.7,9.7,29.92,SSE,157,0.0,0.0,44,0.00,,,0.00,open2300 v1.10,2013-02-20 03:20:00,
2013-02-19 20:25:00,26.7,9.7,29.92,SE,135,0.0,0.0,44,0.00,,,0.00,open2300 v1.10,2013-02-20 03:25:00,
2013-02-19 20:30:00,26.7,9.7,29.92,SE,135,0.0,0.0,44,0.00,,,0.00,open2300 v1.10,2013-02-20 03:30:00,
2013-02-19 20:35:00,26.9,9.8,29.92,SE,135,0.0,0.0,44,0.00,,,0.00,open2300 v1.10,2013-02-20 03:35:00,
2013-02-19 20:40:00,26.9,9.8,29.92,SE,135,0.0,0.0,44,0.00,,,0.00,open2300 v1.10,2013-02-20 03:40:00,
2013-02-19 20:45:00,26.9,9.8,29.92,SSE,157,0.0,0.0,44,0.00,,,0.00,open2300 v1.10,2013-02-20 03:45:00,
2013-02-19 20:50:00,26.9,9.8,29.91,SSE,157,0.0,3.0,44,0.00,,,0.00,open2300 v1.10,2013-02-20 03:50:00,
2013-02-19 20:55:00,26.9,9.8,29.92,SSE,157,0.0,0.0,44,0.00,,,0.00,open2300 v1.10,2013-02-20 03:55:00,
2013-02-19 21:00:00,26.9,9.8,29.91,SE,135,0.0,0.0,44,0.00,,,0.00,open2300 v1.10,2013-02-20 04:00:00,
2013-02-19 21:05:00,26.9,9.8,29.91,SE,135,0.0,0.0,44,0.00,,,0.00,open2300 v1.10,2013-02-20 04:05:00,
2013-02-19 21:10:00,26.9,10.3,29.91,SE,135,0.0,0.0,45,0.00,,,0.00,open2300 v1.10,2013-02-20 04:10:00,
2013-02-19 21:15:00,26.9,10.3,29.91,SE,135,0.0,0.0,45,0.00,,,0.00,open2300 v1.10,2013-02-20 04:15:00,
2013-02-19 21:20:00,26.9,10.3,29.91,ESE,112,0.0,0.0,45,0.00,,,0.00,open2300 v1.10,2013-02-20 04:20:00,
2013-02-19 21:25:00,26.9,10.3,29.91,SE,135,2.7,3.0,45,0.00,,,0.00,open2300 v1.10,2013-02-20 04:25:00,
2013-02-19 21:30:00,26.9,10.8,29.90,SSE,157,4.2,4.2,46,0.00,,,0.00,open2300 v1.10,2013-02-20 04:30:00,
2013-02-19 21:35:00,26.9,10.8,29.90,SSE,157,0.0,4.0,46,0.00,,,0.00,open2300 v1.10,2013-02-20 04:35:00,
2013-02-19 21:40:00,26.9,10.8,29.90,SSE,157,0.0,0.0,46,0.00,,,0.00,open2300 v1.10,2013-02-20 04:40:00,
2013-02-19 21:45:00,26.9,10.8,29.90,SE,135,0.0,0.0,46,0.00,,,0.00,open2300 v1.10,2013-02-20 04:45:00,
2013-02-19 21:50:00,27.1,11.0,29.90,SE,135,0.0,2.0,46,0.00,,,0.00,open2300 v1.10,2013-02-20 04:50:00,
2013-02-19 21:55:00,27.1,11.5,29.90,SSE,157,0.0,0.0,47,0.00,,,0.00,open2300 v1.10,2013-02-20 04:55:00,
2013-02-19 22:00:00,27.1,11.5,29.89,SE,135,0.0,0.0,47,0.00,,,0.00,open2300 v1.10,2013-02-20 05:00:00,
2013-02-19 22:05:00,27.1,11.5,29.89,SE,135,0.0,0.0,47,0.00,,,0.00,open2300 v1.10,2013-02-20 05:05:00,
2013-02-19 22:10:00,27.1,11.5,29.89,SE,135,0.0,0.0,47,0.00,,,0.00,open2300 v1.10,2013-02-20 05:10:00,
2013-02-19 22:15:00,27.1,11.5,29.89,SE,135,0.0,0.0,47,0.00,,,0.00,open2300 v1.10,2013-02-20 05:15:00,
2013-02-19 22:20:00,27.1,11.5,29.89,ESE,112,5.4,5.4,47,0.00,,,0.00,open2300 v1.10,2013-02-20 05:20:00,
2013-02-19 22:25:00,27.1,11.5,29.89,ESE,112,5.4,5.4,47,0.00,,,0.00,open2300 v1.10,2013-02-20 05:25:00,
2013-02-19 22:30:00,27.1,11.5,29.88,SE,135,0.0,5.0,47,0.00,,,0.00,open2300 v1.10,2013-02-20 05:30:00,
2013-02-19 22:35:00,27.1,11.5,29.88,SSE,157,0.0,0.0,47,0.00,,,0.00,open2300 v1.10,2013-02-20 05:35:00,
2013-02-19 22:40:00,27.1,11.5,29.88,SSE,157,0.0,0.0,47,0.00,,,0.00,open2300 v1.10,2013-02-20 05:40:00,
2013-02-19 22:45:00,27.1,11.5,29.88,SSE,157,0.0,0.0,47,0.00,,,0.00,open2300 v1.10,2013-02-20 05:45:00,
2013-02-19 22:50:00,27.1,11.5,29.88,SSE,157,0.0,0.0,47,0.00,,,0.00,open2300 v1.10,2013-02-20 05:50:00,
2013-02-19 22:55:00,26.9,11.3,29.88,SE,135,2.9,3.0,47,0.00,,,0.00,open2300 v1.10,2013-02-20 05:55:00,
2013-02-19 23:00:00,26.9,11.8,29.88,SE,135,2.9,3.0,48,0.00,,,0.00,open2300 v1.10,2013-02-20 06:00:00,
2013-02-19 23:05:00,26.9,11.8,29.87,SE,135,2.9,3.0,48,0.00,,,0.00,open2300 v1.10,2013-02-20 06:05:00,
2013-02-19 23:10:00,26.9,11.8,29.87,SE,135,2.9,3.0,48,0.00,,,0.00,open2300 v1.10,2013-02-20 06:10:00,
2013-02-19 23:15:00,26.9,11.8,29.87,SE,135,0.0,3.0,48,0.00,,,0.00,open2300 v1.10,2013-02-20 06:15:00,
2013-02-19 23:20:00,26.7,11.7,29.87,SE,135,0.0,0.0,48,0.00,,,0.00,open2300 v1.10,2013-02-20 06:20:00,
2013-02-19 23:25:00,26.6,11.5,29.88,SSE,157,0.0,0.0,48,0.00,,,0.00,open2300 v1.10,2013-02-20 06:25:00,
2013-02-19 23:30:00,26.4,11.4,29.87,SSE,157,0.0,0.0,48,0.00,,,0.00,open2300 v1.10,2013-02-20 06:30:00,
2013-02-19 23:35:00,26.4,11.4,29.87,SE,135,0.0,0.0,48,0.00,,,0.00,open2300 v1.10,2013-02-20 06:35:00,
2013-02-19 23:40:00,26.2,11.2,29.87,SE,135,0.0,0.0,48,0.00,,,0.00,open2300 v1.10,2013-02-20 06:40:00,
2013-02-19 23:45:00,26.0,11.0,29.87,SE,135,0.0,0.0,48,0.00,,,0.00,open2300 v1.10,2013-02-20 06:45:00,
2013-02-19 23:50:00,26.0,11.0,29.87,SE,135,0.0,0.0,48,0.00,,,0.00,open2300 v1.10,2013-02-20 06:50:00,
2013-02-19 23:55:00,26.0,11.5,29.87,SE,135,0.0,0.0,49,0.00,,,0.00,open2300 v1.10,2013-02-20 06:55:00,